ONEWEB-0068 (45446 NORAD) Tracking and Keplerian Element Data

This shows tracking and keplerian element data for the satellite.

Feedback or suggestion? Click here.




ElementValue
Catalog45446
NameONEWEB-0068
Epoch Orbit163
Epoch Day93.91667824
Epoch Year2020
RAAN134.5977
Inclination87.3996
Eccentricity0.0025296
Argument of Perigee254.6462
Mean Anonmoly236.1799
Mean Motion15.35579432
Decay Rate0.00041817
L11 45446U 20020Y 20093.91667824 .00041817 00000-0 11920-2 0 9990
L22 45446 87.3996 134.5977 0025296 254.6462 236.1799 15.35579432 1637

Live tracking and technical data element details for ONEWEB-0068 (NORAD 45446). ONEWEB-0068 can be tracked NOW for your location showing map with azimuth and elevation plus other details from your city location.

Track the satellite on the map from your city or location and see movement details for azimuth, elevation, latitude, longitude, range, height, and movement on the map or in text.







IsCatalogInMostPopularTable: catalog: 45446, numindb: 3
Update: records affected: 1



GetName: 45446 ONEWEB-0068

Hit Count: updated at: Tue, 07 Apr 2020 16:08:10 GMT